Wind_Speed
9 9 9 10 10 10 10 10 9 9 9 10 10 10 10 8 8 8 9 9 9 9 9 9 10 10 10 10 10 10 10 10 10 10 9 9 9 10 9 9 9 9 10
9 9 9 10 11 11 11 11 11 10 11 11 11 10 9 9 10 10 10 10 11 10 10 10 11 11 12 12 12 11 11 11 12 11 11 10 10 10 10 10 10 10 11
10 10 10 10 11 11 11 11 11 11 12 12 12 11 10 10 11 11 11 11 12 12 12 12 13 13 13 13 13 13 13 13 13 13 13 12 11 11 11 12 12 12 12
10 10 11 11 11 11 12 12 12 12 12 12 12 12 12 11 12 12 12 12 12 13 13 14 14 14 14 14 14 14 14 14 15 15 15 14 13 13 13 13 13 13 13
11 11 11 12 12 12 12 13 13 14 13 13 13 13 12 12 13 13 13 13 14 14 14 15 14 15 15 15 16 16 16 16 16 16 16 16 16 16 16 15 14 14 14
13 13 13 13 14 14 13 13 14 14 14 13 14 14 13 14 14 14 14 15 15 15 16 16 16 16 16 16 16 16 17 17 16 17 17 17 17 17 17 17 16 16 16
14 15 15 15 15 15 15 14 14 14 14 14 14 15 15 15 16 16 16 16 16 16 17 17 17 17 17 17 17 17 17 17 17 18 18 18 18 17 18 18 17 17 17
15 15 15 16 15 15 16 15 15 15 14 14 15 15 15 16 17 17 18 18 18 18 18 19 19 19 19 19 19 19 19 18 19 19 19 19 19 19 19 19 18 18 18
17 17 17 16 16 16 17 17 16 16 16 16 16 16 16 17 17 18 19 19 20 20 20 20 20 21 21 21 21 20 20 20 20 20 20 20 20 20 20 20 20 20 19
19 20 19 18 18 18 18 18 17 17 17 17 17 17 18 18 19 19 19 20 20 21 21 21 21 21 21 21 21 21 22 21 21 21 21 21 21 21 21 22 22 22 21
20 20 21 20 19 18 19 19 19 19 19 18 18 19 19 19 20 20 20 20 20 20 21 21 21 21 21 21 21 22 23 23 23 22 22 21 22 22 22 22 22 23 22
21 21 21 22 22 21 20 20 20 20 20 20 20 20 20 20 21 21 21 20 21 21 21 21 22 22 22 22 23 23 22 22 23 23 23 22 23 23 23 23 23 23 23
23 21 22 22 23 22 21 20 21 21 21 21 21 21 21 21 21 21 21 22 22 22 22 22 22 22 22 23 23 23 23 23 23 23 23 23 24 24 24 23 23 24 24
24 23 23 23 22 21 21 21 21 21 22 22 22 23 22 22 22 22 22 22 23 23 23 23 22 23 23 23 23 23 23 24 24 24 24 24 24 24 23 23 24 24 24
25 24 24 23 22 22 21 21 22 22 22 22 22 23 23 22 22 22 23 22 23 24 24 23 23 23 23 23 23 23 23 24 24 24 24 24 25 24 24 24 24 24 24
27 26 25 24 23 23 22 22 22 22 23 23 23 24 24 23 22 23 22 22 24 24 24 24 24 24 23 23 23 24 23 24 24 23 23 24 25 24 24 24 24 24 25
28 27 26 25 24 23 23 23 23 23 23 23 24 25 24 23 23 23 23 24 24 24 25 25 25 24 24 24 24 24 24 24 24 23 24 25 24 24 24 24 24 24 24
29 28 26 26 26 25 24 24 23 24 24 24 24 25 25 25 24 23 23 24 24 25 25 24 24 24 24 24 24 24 24 24 24 23 23 23 23 23 23 24 24 24 24
28 29 28 28 27 27 26 26 26 25 25 25 26 26 27 26 25 25 25 25 25 25 24 24 24 24 24 24 24 24 24 23 23 23 23 23 23 23 24 24 24 24 24
30 30 29 29 29 28 28 27 27 27 27 27 27 27 27 26 26 26 26 26 25 24 24 24 24 24 24 24 24 23 23 23 22 22 23 23 23 24 24 24 24 24 24
30 31 31 30 30 29 28 28 28 28 27 27 28 28 27 27 27 26 26 26 26 26 25 25 24 24 23 23 23 22 22 23 22 22 22 23 24 24 24 24 24 24 24
30 30 30 30 30 30 29 29 29 28 28 28 28 28 28 28 28 27 26 26 27 26 26 26 24 23 23 22 22 22 22 22 22 22 22 23 24 24 24 24 24 24 25
31 30 30 30 30 30 30 29 29 29 28 28 28 29 29 29 28 28 28 27 27 26 26 26 25 24 23 23 23 22 22 22 22 23 23 24 24 24 24 24 24 24 24
30 31 31 30 30 30 30 30 29 29 28 28 28 28 28 29 29 28 28 28 27 27 26 26 25 25 25 24 23 23 22 23 23 24 24 24 24 24 24 23 23 23 23
30 30 30 30 30 30 30 29 29 29 29 29 29 29 29 29 29 28 27 27 27 27 26 26 26 26 25 24 24 24 23 23 24 24 24 24 24 24 24 23 23 23 23
29 29 30 30 30 31 31 30 30 29 29 30 29 29 29 29 29 29 28 27 26 25 25 25 25 25 25 25 25 25 24 24 24 23 23 23 24 24 23 23 22 23 23
Wind_Direction
337 338 339 340 340 338 335 331 329 322 321 324 323 319 315 313 312 310 312 312 309 301 298 297 299 299 298 297 297 297 297 295 295 295 297 298 297 294 294 291 292 294 295
334 333 335 335 336 337 334 330 325 319 316 316 318 317 316 315 313 310 312 311 306 302 298 297 296 296 298 298 296 295 296 295 295 294 292 294 294 291 289 287 289 293 293
325 326 328 331 331 331 329 328 325 317 312 312 315 313 314 312 311 308 307 307 304 302 297 297 297 296 294 294 295 295 293 291 291 292 293 292 290 288 288 288 290 290 291
319 322 323 324 324 325 325 324 322 318 316 318 312 310 308 308 307 305 304 304 303 301 299 297 297 297 296 294 292 293 293 291 289 289 290 290 288 285 283 285 287 289 290
311 315 315 316 317 319 320 320 319 317 317 314 311 309 305 306 306 304 301 300 300 300 300 299 298 297 296 295 292 290 289 289 287 287 287 286 284 284 285 283 285 287 287
306 308 310 311 312 314 316 317 317 316 315 311 308 307 304 303 305 303 300 299 300 299 299 297 296 295 294 294 293 292 290 287 287 286 284 283 284 285 287 285 285 286 285
303 305 308 310 311 312 313 313 314 313 313 310 306 305 304 302 303 303 300 298 297 297 296 294 293 292 292 293 293 291 290 287 286 284 283 284 285 286 286 287 286 285 286
302 300 302 306 309 310 312 312 311 311 310 310 306 302 303 300 300 299 299 297 295 293 293 292 290 290 290 289 288 288 286 285 283 283 283 283 284 284 284 286 286 287 286
297 297 299 302 305 307 309 310 309 308 307 309 306 302 299 299 297 297 298 298 294 291 291 292 292 290 289 287 285 284 283 282 281 282 282 282 282 281 282 282 283 286 284
292 294 296 300 301 302 305 307 307 306 308 308 305 302 300 300 298 298 299 298 294 291 291 290 289 288 288 287 286 284 282 280 279 280 281 281 281 281 280 280 281 284 286
292 293 293 295 299 300 302 303 302 303 303 304 304 301 299 297 297 297 298 297 295 292 291 290 288 288 287 286 286 284 283 281 279 279 279 279 281 282 280 279 280 282 283
288 290 292 294 296 296 296 298 297 298 299 299 301 302 300 297 297 297 299 299 296 293 293 290 288 287 287 286 286 284 284 283 280 280 279 279 280 282 281 279 280 281 281
285 287 288 291 293 293 292 292 292 294 295 296 297 298 300 300 301 300 300 299 299 297 296 292 288 287 287 287 286 284 283 283 282 281 281 281 281 281 281 281 281 281 282
285 284 286 288 290 290 289 290 291 292 293 293 294 297 299 300 302 302 300 300 300 300 298 293 290 286 286 287 287 286 285 284 284 283 281 282 282 282 282 282 281 281 281
284 285 288 289 287 286 286 287 289 293 295 296 296 297 299 300 300 300 300 299 301 300 299 296 293 288 287 286 286 287 287 285 284 283 282 281 281 282 282 281 280 280 280
282 283 285 288 288 284 283 284 286 290 293 294 296 298 298 299 298 297 299 300 301 299 298 297 295 292 290 286 285 286 286 286 285 284 282 281 280 280 281 281 281 281 281
280 280 282 284 285 284 283 283 286 289 292 295 297 300 299 297 295 295 297 299 300 298 298 297 295 293 291 289 286 286 286 285 284 284 284 282 280 280 280 281 282 282 281
278 280 281 281 282 282 283 285 287 288 292 294 295 297 299 299 297 296 298 299 300 299 299 298 297 294 294 293 289 287 286 285 285 285 285 283 281 281 281 281 281 282 282
277 279 279 279 280 281 281 283 285 287 289 291 294 296 297 297 298 297 298 299 299 300 300 300 298 297 296 295 293 289 289 288 286 285 284 284 284 283 283 283 282 281 282
277 278 277 277 279 280 281 281 282 284 286 288 290 293 295 296 296 296 297 297 298 300 300 300 299 298 295 294 293 291 290 288 286 285 284 284 283 283 283 284 281 280 280
276 276 277 278 278 278 280 281 282 283 284 287 289 291 293 294 293 293 294 296 296 296 297 298 298 297 295 295 294 293 290 289 287 285 287 286 286 284 284 283 281 279 279
277 278 277 277 277 277 278 280 281 281 283 285 287 289 290 290 291 291 292 295 295 294 294 294 295 295 295 294 294 293 290 288 287 287 288 287 287 285 284 283 282 281 281
275 276 277 277 277 277 277 278 278 279 280 283 285 286 288 289 291 292 292 293 293 293 292 291 291 293 294 294 293 292 290 288 287 287 287 286 285 284 282 282 282 282 282
274 275 276 277 277 276 276 276 276 277 278 281 283 286 288 289 290 292 292 291 291 292 291 289 289 289 290 293 292 290 289 289 287 286 286 284 284 283 282 281 281 282 283
274 275 276 277 278 276 275 276 276 276 277 279 282 285 287 288 289 290 292 293 290 288 288 288 286 287 287 290 290 289 287 288 288 286 286 285 284 283 282 280 280 281 283
275 275 277 278 279 279 276 275 275 276 277 278 280 283 286 288 289 290 291 291 290 289 288 288 286 285 286 286 288 288 287 287 287 286 286 286 284 282 279 279 280 280 279
Height
5895 5894 5893 5891 5890 5889 5887 5886 5885 5884 5883 5882 5881 5880 5879 5879 5879 5878 5878 5877 5877 5877 5877 5876 5876 5876 5875 5875 5875 5874 5874 5874 5873 5873 5873 5873 5872 5872 5872 5872 5872 5872 5871
5895 5894 5892 5891 5890 5888 5887 5885 5884 5883 5882 5881 5880 5879 5878 5878 5877 5877 5876 5876 5876 5875 5875 5875 5874 5874 5873 5873 5872 5872 5872 5871 5871 5871 5870 5869 5871 5870 5870 5869 5869 5868 5869
5894 5893 5892 5890 5889 5887 5886 5884 5883 5882 5880 5879 5879 5878 5877 5876 5876 5875 5875 5874 5874 5873 5873 5872 5872 5871 5871 5870 5870 5869 5869 5869 5868 5868 5867 5866 5867 5867 5867 5867 5866 5866 5866
5893 5892 5890 5889 5887 5886 5884 5883 5882 5880 5879 5878 5877 5876 5875 5875 5874 5874 5873 5872 5871 5871 5870 5870 5869 5869 5868 5867 5867 5866 5866 5866 5865 5865 5864 5864 5864 5864 5864 5863 5863 5862 5862
5891 5890 5889 5888 5886 5884 5883 5881 5880 5878 5877 5876 5875 5874 5873 5873 5872 5871 5871 5870 5869 5868 5867 5866 5866 5865 5865 5864 5864 5863 5862 5861 5861 5861 5861 5860 5860 5860 5860 5860 5860 5859 5858
5890 5889 5887 5886 5884 5882 5881 5879 5878 5876 5875 5874 5873 5872 5871 5870 5869 5869 5868 5867 5866 5865 5864 5863 5862 5862 5861 5860 5860 5859 5858 5857 5857 5857 5857 5856 5856 5856 5856 5856 5855 5855 5854
5888 5886 5885 5884 5882 5881 5879 5877 5876 5874 5873 5871 5870 5869 5868 5867 5866 5865 5865 5864 5863 5862 5860 5859 5858 5858 5857 5856 5855 5855 5854 5853 5853 5852 5852 5852 5852 5851 5851 5851 5851 5850 5850
5885 5884 5883 5881 5880 5879 5877 5875 5873 5872 5870 5869 5867 5866 5865 5864 5863 5862 5861 5860 5859 5857 5856 5855 5854 5853 5852 5852 5851 5850 5849 5849 5848 5848 5847 5847 5847 5847 5846 5846 5846 5846 5845
5882 5880 5879 5878 5877 5876 5874 5872 5871 5869 5867 5866 5864 5863 5861 5860 5859 5858 5856 5855 5854 5853 5851 5850 5849 5848 5847 5846 5846 5845 5844 5844 5843 5843 5842 5842 5842 5842 5841 5841 5841 5841 5840
5878 5876 5875 5874 5873 5872 5871 5869 5867 5866 5864 5862 5861 5859 5858 5856 5855 5853 5852 5851 5849 5848 5846 5845 5844 5843 5842 5841 5840 5839 5838 5838 5837 5837 5837 5836 5836 5836 5835 5835 5835 5835 5835
5873 5872 5870 5870 5867 5867 5866 5865 5863 5862 5860 5859 5857 5855 5853 5851 5850 5848 5847 5845 5844 5842 5841 5840 5838 5837 5836 5835 5834 5833 5832 5831 5831 5831 5831 5830 5830 5830 5829 5829 5829 5829 5828
5868 5867 5866 5865 5864 5863 5862 5860 5859 5857 5856 5854 5852 5851 5849 5847 5845 5843 5841 5840 5839 5837 5835 5834 5833 5831 5830 5829 5828 5827 5826 5825 5824 5824 5824 5824 5824 5823 5823 5822 5822 5822 5821
5863 5862 5861 5860 5859 5858 5857 5855 5854 5853 5851 5849 5847 5845 5844 5842 5840 5838 5837 5835 5833 5831 5830 5828 5826 5825 5824 5823 5822 5820 5819 5819 5818 5818 5817 5817 5817 5816 5816 5815 5815 5815 5815
5857 5856 5855 5854 5854 5853 5851 5850 5849 5847 5846 5844 5842 5840 5839 5837 5835 5833 5831 5829 5827 5825 5824 5822 5820 5819 5818 5817 5815 5814 5813 5812 5811 5811 5810 5810 5810 5809 5809 5808 5808 5808 5808
5852 5851 5850 5849 5848 5847 5846 5845 5843 5842 5841 5839 5837 5835 5833 5831 5829 5827 5825 5823 5821 5820 5818 5815 5813 5812 5811 5810 5809 5808 5807 5806 5805 5804 5803 5803 5803 5802 5802 5802 5801 5801 5801
5846 5845 5844 5843 5842 5841 5840 5839 5838 5837 5835 5834 5832 5830 5828 5825 5823 5822 5820 5817 5815 5814 5812 5810 5808 5806 5805 5804 5803 5801 5800 5799 5798 5797 5797 5796 5796 5795 5795 5794 5794 5794 5793
5839 5838 5838 5837 5836 5835 5834 5833 5832 5830 5829 5828 5826 5824 5821 5819 5818 5816 5814 5812 5810 5807 5805 5803 5802 5800 5799 5797 5796 5795 5794 5793 5792 5791 5790 5789 5788 5788 5787 5787 5787 5786 5786
5831 5832 5831 5830 5830 5829 5828 5827 5825 5824 5823 5821 5820 5818 5816 5814 5812 5810 5808 5806 5803 5801 5799 5797 5795 5794 5793 5791 5789 5788 5787 5786 5785 5784 5783 5782 5782 5781 5781 5780 5780 5779 5779
5824 5825 5824 5823 5822 5822 5821 5820 5819 5818 5816 5815 5814 5812 5810 5808 5805 5803 5802 5800 5797 5795 5793 5791 5790 5788 5786 5784 5783 5781 5780 5779 5778 5777 5776 5775 5775 5775 5774 5773 5773 5772 5772
5817 5817 5816 5815 5815 5815 5814 5813 5812 5811 5810 5809 5807 5806 5803 5801 5799 5797 5795 5793 5791 5789 5787 5785 5783 5781 5780 5778 5776 5775 5773 5772 5771 5770 5770 5769 5768 5768 5767 5766 5766 5765 5765
5809 5809 5808 5808 5807 5807 5806 5806 5805 5804 5803 5802 5800 5799 5797 5795 5793 5791 5789 5787 5785 5783 5781 5779 5777 5775 5773 5771 5770 5768 5767 5766 5765 5764 5763 5762 5761 5760 5760 5759 5759 5758 5757
5801 5801 5800 5799 5799 5799 5798 5798 5797 5796 5796 5795 5793 5792 5790 5787 5786 5783 5781 5780 5778 5776 5774 5773 5771 5768 5767 5765 5763 5761 5760 5759 5758 5757 5757 5756 5755 5754 5753 5752 5751 5751 5750
5793 5792 5791 5791 5790 5790 5790 5789 5789 5788 5787 5787 5786 5784 5783 5780 5778 5776 5775 5773 5771 5769 5767 5766 5764 5762 5761 5759 5757 5756 5754 5753 5752 5751 5750 5749 5748 5747 5746 5745 5744 5743 5743
5785 5784 5783 5783 5782 5782 5781 5781 5780 5780 5779 5778 5778 5777 5775 5773 5771 5769 5767 5765 5764 5762 5760 5759 5757 5756 5754 5752 5750 5749 5748 5746 5745 5744 5743 5741 5741 5740 5739 5738 5737 5737 5736
5776 5775 5775 5774 5773 5773 5773 5772 5772 5771 5771 5770 5770 5769 5768 5766 5765 5763 5760 5758 5756 5755 5753 5752 5750 5749 5748 5746 5744 5742 5741 5740 5738 5737 5736 5735 5733 5733 5732 5731 5731 5730 5730
5768 5767 5766 5766 5765 5764 5764 5763 5763 5763 5762 5762 5762 5761 5760 5759 5757 5756 5754 5751 5750 5747 5746 5744 5743 5742 5741 5739 5737 5735 5734 5733 5731 5730 5729 5727 5726 5725 5725 5724 5724 5723 5723